Flag for U.S.A. Weather past 2 weeks in Minot, North Dakota, U.S.A.

Now
61 °F

Clear.


Feels Like: 61 °F
Forecast: 57 / 69 °F
Wind: 10 mph from Northwest

Location: Minot International Airport

Current Time: Jul 26, 2014 at 2:57:18 AM

Latest Report: Jul 26, 2014 at 1:54 AM


Visibility: 10 mi

Pressure: 29.77 "Hg

Humidity: 72%

Dew point: 52 °F

Location of MinotLocation

Historic Weather in Minot — Graph

°F

Minot temperature yesterday

Maximum temperature yesterday: 79 °F (at 4:54 PM)
Minimum temperature yesterday: 61 °F (at 6:54 AM)
Average temperature yesterday: 70 °F

Past Weeks' High & Low Weather Summary

 TemperatureHumidityPressure
High90 °F (Jul 20, 1:54 PM)100% (Jul 16, 9:54 AM)30.32 "Hg (Jul 16, 9:54 AM)
Low49 °F (Jul 15, 5:54 AM)28% (Jul 20, 1:54 PM)29.55 "Hg (Jul 20, 3:54 AM)
Average68 °F66%29.94 "Hg
* Reported Jul 11 12:54 AM — Jul 26 12:54 AM, Minot, Weather by CustomWeather, © 2014

Note: Actual official high and low records may vary slightly from our data, if they occured in-between our weather recording intervals... More about our weather records

Advertising

Minot weather history for July 12, 2014

 ConditionsComfort  
Time TempWeatherWind HumidityBarometerVisibility
12:54 AM
Jul 12
61 °FClear.9 mph78%30.09 "Hg10 mi
1:54 AM60 °FClear.9 mph78%30.08 "Hg10 mi
2:54 AM57 °FClear.7 mph87%30.07 "Hg10 mi
3:54 AM56 °FClear.6 mph90%30.06 "Hg10 mi
4:54 AM55 °FClear.7 mph90%30.06 "Hg10 mi
5:54 AM55 °FClear.7 mph90%30.07 "Hg10 mi
6:54 AM56 °FClear.7 mph87%30.08 "Hg10 mi
7:54 AM60 °FPartly sunny.7 mph78%30.08 "Hg10 mi
8:54 AM65 °FSunny.7 mph68%30.08 "Hg10 mi
9:54 AM70 °FPassing clouds.9 mph59%30.07 "Hg10 mi
10:54 AM73 °FSunny.10 mph46%30.06 "Hg10 mi
11:54 AM74 °FSunny.14 mph48%30.05 "Hg10 mi
12:54 PM75 °FScattered clouds.14 mph48%30.04 "Hg10 mi
1:54 PM78 °FPassing clouds.21 mph43%30.02 "Hg10 mi
2:54 PM79 °FPassing clouds.22 mph38%30.01 "Hg10 mi
3:54 PM79 °FSunny.17 mph35%30.00 "Hg10 mi
4:54 PM80 °FSunny.22 mph35%29.99 "Hg10 mi
5:54 PM80 °FSunny.25 mph34%29.97 "Hg10 mi
7:54 PM75 °FSunny.18 mph42%29.98 "Hg10 mi
8:54 PM71 °FPassing clouds.10 mph55%30.00 "Hg10 mi
9:54 PM65 °FPassing clouds.10 mph66%30.01 "Hg10 mi
10:54 PM62 °FClear.8 mph70%30.03 "Hg10 mi
11:54 PM63 °FClear.13 mph58%30.03 "Hg10 mi
Weather by CustomWeather, © 2014

See weather overviewHow to use our weather pages